Date String (YYYY-MM-DD hh:mm:ss) UTC,Instrument flags,Ambient pressure (hPa),Sample flow (lpm),Bypass flow (lpm),Sample temperature (°C),Ambient temperature (°C),ASC tube jacket temperature (°C),LED temperature (°C),Box temperature (°C),Sample RH (%),Span deviation,Mass concentration (μg/m³),Mass concentration (μg/m³),Mass concentration (μg/m³)
DateTimeUTC,F1_M11,P_M11,Q1_M11,Q2_M11,T1_M11,T2_M11,T3_M11,T4_M11,T5_M11,U1_M11,ZSPAN_M11,X0_M11,X2_M11,X1_M11
2022-05-03 09:00:00,,0822.5,4.99,0.00,23.4,22.7,00.0,32.4,25.2,22.1,0000.0,0007.51,0005.63,0005.52
2022-05-03 09:01:00,,0822.5,5.01,0.00,23.4,22.7,00.0,32.4,25.3,22.0,0000.0,0007.50,0005.62,0005.52
2022-05-03 09:02:00,,0822.5,5.00,0.00,23.4,22.7,00.0,32.4,25.2,22.0,0000.0,0007.53,0005.61,0005.50
2022-05-03 09:03:00,,0822.5,5.00,0.00,23.5,22.7,00.0,32.4,25.2,22.0,0000.0,0007.56,0005.63,0005.50
2022-05-03 09:04:00,,0822.4,5.01,0.00,23.5,22.7,00.0,32.4,25.2,22.0,0000.0,0007.59,0005.65,0005.52
2022-05-03 09:05:00,,0822.5,5.00,0.00,23.4,22.7,00.0,32.4,25.2,22.0,0000.0,0007.49,0005.67,0005.54
2022-05-03 09:06:00,,0822.4,5.00,0.00,23.4,22.7,00.0,32.4,25.2,21.9,0000.0,0007.36,0005.70,0005.57
2022-05-03 09:07:00,,0822.5,5.01,0.00,23.5,22.7,00.0,32.4,25.2,21.9,0000.0,0007.59,0005.69,0005.57
2022-05-03 09:08:00,,0822.5,4.99,0.00,23.4,22.7,00.0,32.4,25.2,22.0,0000.0,0007.97,0005.67,0005.56
2022-05-03 09:09:00,,0822.5,5.01,0.00,23.5,22.7,00.0,32.4,25.2,21.9,0000.0,0008.02,0005.67,0005.54
2022-05-03 09:10:00,,0822.5,4.99,0.00,23.5,22.7,00.0,32.4,25.3,21.9,0000.0,0007.72,0005.67,0005.55
2022-05-03 09:11:00,,0822.5,5.00,0.00,23.5,22.7,00.0,32.4,25.3,21.9,0000.0,0007.54,0005.67,0005.56
2022-05-03 09:12:00,,0822.5,5.00,0.00,23.5,22.7,00.0,32.4,25.3,21.9,0000.0,0007.56,0005.70,0005.58
2022-05-03 09:13:00,,0822.5,4.99,0.00,23.5,22.7,00.0,32.4,25.2,21.9,0000.0,0007.57,0005.71,0005.60
2022-05-03 09:14:00,,0822.4,5.01,0.00,23.5,22.7,00.0,32.4,25.3,21.9,0000.0,0007.57,0005.72,0005.61
2022-05-03 09:15:00,,0822.5,4.99,0.00,23.5,22.7,00.0,32.4,25.2,21.9,0000.0,0007.56,0005.70,0005.61
2022-05-03 09:16:00,,0822.4,5.00,0.00,23.5,22.7,00.0,32.4,25.3,21.9,0000.0,0007.52,0005.68,0005.59
2022-05-03 09:17:00,,0822.4,5.00,0.00,23.5,22.7,00.0,32.4,25.3,21.9,0000.0,0007.61,0005.65,0005.57
2022-05-03 09:18:00,,0822.5,5.00,0.00,23.5,22.7,00.0,32.4,25.3,21.9,0000.0,0007.86,0005.67,0005.58
2022-05-03 09:19:00,,0822.4,5.01,0.00,23.5,22.7,00.0,32.4,25.3,21.9,0000.0,0007.61,0005.70,0005.60
2022-05-03 09:20:00,,0822.5,4.99,0.00,23.5,22.7,00.0,32.4,25.3,21.9,0000.0,0007.66,0005.70,0005.61
2022-05-03 09:21:00,,0822.5,5.00,0.00,23.5,22.7,00.0,32.4,25.3,21.9,0000.0,0007.66,0005.71,0005.62
2022-05-03 09:22:00,,0822.5,5.02,0.00,23.5,22.7,00.0,32.4,25.3,21.9,0000.0,0007.78,0005.74,0005.62
2022-05-03 09:23:00,,0822.5,4.99,0.00,23.5,22.7,00.0,32.4,25.3,21.9,0000.0,0007.95,0005.75,0005.62
2022-05-03 09:24:00,,0822.4,5.00,0.00,23.5,22.7,00.0,32.4,25.3,21.9,0000.0,0008.52,0005.76,0005.64
2022-05-03 09:25:00,,0822.4,5.01,0.00,23.5,22.7,00.0,32.4,25.3,21.9,0000.0,0008.88,0005.76,0005.64
2022-05-03 09:26:00,,0822.5,4.99,0.00,23.5,22.7,00.0,32.4,25.3,21.9,0000.0,0008.87,0005.76,0005.64
2022-05-03 09:27:00,,0822.5,5.01,0.00,23.5,22.7,00.0,32.4,25.3,21.9,0000.0,0008.92,0005.80,0005.67
2022-05-03 09:28:00,,0822.5,4.99,0.00,23.5,22.7,00.0,32.4,25.3,21.9,0000.0,0008.83,0005.83,0005.71
2022-05-03 09:29:00,,0822.4,5.00,0.00,23.5,22.7,00.0,32.4,25.3,22.1,0000.0,0008.59,0005.83,0005.72
2022-05-03 09:30:00,,0822.5,5.00,0.00,23.5,22.7,00.0,32.4,25.3,23.8,0000.0,0008.31,0005.82,0005.72
2022-05-03 09:31:00,,0822.5,4.99,0.00,23.5,22.7,00.0,32.4,25.3,23.8,0000.0,0008.07,0005.82,0005.73
2022-05-03 09:32:00,,0822.5,5.01,0.00,23.5,22.7,00.0,32.4,25.3,22.6,0000.0,0008.14,0005.83,0005.73
2022-05-03 09:33:00,,0822.4,4.99,0.00,23.5,22.7,00.0,32.4,25.3,22.3,0000.0,0008.07,0005.81,0005.73
2022-05-03 09:34:00,,0822.4,4.99,0.00,23.5,22.7,00.0,32.4,25.3,22.2,0000.0,0007.91,0005.81,0005.73
2022-05-03 09:35:00,,0822.4,5.01,0.00,23.5,22.7,00.0,32.4,25.3,22.1,0000.0,0007.48,0005.81,0005.73
2022-05-03 09:36:00,,0822.5,4.99,0.00,23.5,22.7,00.0,32.4,25.3,22.1,0000.0,0006.84,0005.82,0005.73
2022-05-03 09:37:00,,0822.5,5.00,0.00,23.5,22.7,00.0,32.4,25.3,22.1,0000.0,0006.73,0005.81,0005.73
2022-05-03 09:38:00,,0822.4,5.00,0.00,23.5,22.7,00.0,32.4,25.2,22.1,0000.0,0006.68,0005.79,0005.71
2022-05-03 09:39:00,,0822.4,4.99,0.00,23.5,22.7,00.0,32.4,25.2,22.1,0000.0,0006.61,0005.76,0005.68
2022-05-03 09:40:00,,0822.5,5.02,0.00,23.5,22.7,00.0,32.4,25.3,22.1,0000.0,0006.57,0005.73,0005.65
2022-05-03 09:41:00,,0822.5,4.99,0.00,23.5,22.7,00.0,32.4,25.2,22.1,0000.0,0006.54,0005.72,0005.64
2022-05-03 09:42:00,,0822.4,5.01,0.00,23.5,22.7,00.0,32.4,25.2,22.1,0000.0,0006.55,0005.73,0005.65
2022-05-03 09:43:00,,0822.5,5.00,0.00,23.4,22.7,00.0,32.4,25.2,22.0,0000.0,0006.45,0005.73,0005.66
2022-05-03 09:44:00,,0822.5,5.01,0.00,23.4,22.7,00.0,32.4,25.2,22.0,0000.0,0006.46,0005.75,0005.67
2022-05-03 09:45:00,,0822.5,4.99,0.00,23.4,22.7,00.0,32.4,25.2,21.9,0000.0,0006.43,0005.75,0005.67
2022-05-03 09:46:00,,0822.5,5.01,0.00,23.4,22.7,00.0,32.4,25.2,22.0,0000.0,0006.18,0005.74,0005.68
2022-05-03 09:47:00,,0822.5,5.00,0.00,23.4,22.7,00.0,32.4,25.2,22.0,0000.0,0006.30,0005.76,0005.69
2022-05-03 09:48:00,,0822.5,4.99,0.00,23.4,22.7,00.0,32.4,25.2,22.0,0000.0,0006.27,0005.78,0005.70
2022-05-03 09:49:00,,0822.5,5.01,0.00,23.4,22.6,00.0,32.4,25.2,22.0,0000.0,0006.33,0005.80,0005.72
2022-05-03 09:50:00,,0822.5,4.99,0.00,23.4,22.6,00.0,32.4,25.2,22.0,0000.0,0006.45,0005.84,0005.75
2022-05-03 09:51:00,,0822.5,5.00,0.00,23.4,22.6,00.0,32.4,25.2,22.0,0000.0,0006.59,0005.87,0005.77
2022-05-03 09:52:00,,0822.5,5.01,0.00,23.4,22.6,00.0,32.4,25.2,21.9,0000.0,0006.61,0005.89,0005.79
2022-05-03 09:53:00,,0822.5,5.00,0.00,23.4,22.6,00.0,32.4,25.1,21.9,0000.0,0006.63,0005.90,0005.80
2022-05-03 09:54:00,,0822.5,5.00,0.00,23.4,22.6,00.0,32.4,25.1,21.9,0000.0,0006.71,0005.94,0005.83
2022-05-03 09:55:00,,0822.5,5.00,0.00,23.4,22.6,00.0,32.4,25.1,21.9,0000.0,0006.70,0005.96,0005.85
2022-05-03 09:56:00,,0822.5,4.99,0.00,23.4,22.6,00.0,32.4,25.1,21.9,0000.0,0006.73,0005.98,0005.86
2022-05-03 09:57:00,,0822.5,5.01,0.00,23.3,22.6,00.0,32.3,25.1,21.9,0000.0,0006.81,0006.02,0005.90
2022-05-03 09:58:00,,0822.5,4.99,0.00,23.3,22.6,00.0,32.3,25.1,21.9,0000.0,0006.92,0006.06,0005.94
2022-05-03 09:59:00,,0822.5,5.00,0.00,23.3,22.6,00.0,32.3,25.1,21.9,0000.0,0007.16,0006.11,0005.98
